Regional Weather Roundup
Issued by NWS

Home | Current Version | Previous Version | Graphics & Text | Print | Product List | Glossary On
Versions: 1 2 3 4 5 6 7 8 9 10 11 12 13 14 15 16 17 18 19 20 21 22 23 24 25 26 27 28 29 30 31 32 33 34 35 36 37 38 39 40 41 42 43 44 45 46 47 48 49 50
000
ASUS45 KTFX 240110
RWRMT
MONTANA REGIONAL WEATHER ROUNDUP
NATIONAL WEATHER SERVICE GREAT FALLS MT
700 PM MDT TUE MAY 23 2017

NOTE: "FAIR" INDICATES FEW OR NO CLOUDS BELOW 12000 FEET WITH NO
SIGNIFICANT WEATHER AND/OR OBSTRUCTIONS TO VISIBILITY.

MTZ001>007-043-240200-
WEST OF THE DIVIDE

CITY           SKY/WX    TMP DP  RH WIND       PRES   REMARKS
KALISPELL      SUNNY     78  49  35 S15       29.73F
MISSOULA       SUNNY     81  40  23 W9        29.82F
BUTTE          SUNNY     77  32  19 W13G21    29.95F
MULLAN PASS    SUNNY     63  32  31 SW14G23   29.98F
ANACONDA         N/A     77  27  15 W13G18    29.91F
DEER LODGE       N/A     75  43  31 NW5       29.92F
EUREKA           N/A     82  37  20 S14G21    29.71F
HAMILTON         N/A     81  39  22 SW9G18    29.86F
PLAINS           N/A     83  42  23 S13       29.79F
RONAN            N/A     80  47  31 SE6       29.86
$$

MTZ008-052>055-240200-
SOUTHWEST MONTANA

CITY           SKY/WX    TMP DP  RH WIND       PRES   REMARKS
BOZEMAN        SUNNY     76  44  32 E5        29.90F
DILLON         SUNNY     76  34  21 W10       29.95F
W YELLOWSTONE  SUNNY     66  37  34 SW15G26   30.09F
ENNIS          SUNNY     73  37  27 SE9G15    30.01F
THREE FORKS      N/A     78  47  33 S3        29.89F
TWIN BRIDGES     N/A     77  37  23 SE7       29.93F
$$

MTZ009-010-012-014-046-048-049-054-240200-
EAST SLOPES AND CENTRAL MONTANA

CITY           SKY/WX    TMP DP  RH WIND       PRES   REMARKS
CUT BANK       PTSUNNY   73  39  29 SW13G20   29.75F
GREAT FALLS    SUNNY     78  45  30 SW9       29.78F
HELENA         SUNNY     80  43  26 CALM      29.83F
CHOTEAU          N/A     73  43  33 W8        29.79F
CONRAD           N/A     81  50  33 SW12      29.80F
$$

MTZ011-013-016-021-045-047-050-051-240200-
NORTH CENTRAL MONTANA

CITY           SKY/WX    TMP DP  RH WIND       PRES   REMARKS
HAVRE          SUNNY     81  44  27 S14       29.73F
LEWISTOWN      CLOUDY    73  45  36 VRB5      29.85F
N BAR RANCH      N/A     66  43  42 S20G25    29.93F
CHINOOK          N/A     81  43  26 SE12      29.74F
$$

MTZ017>020-022>027-061-062-240200-
NORTHEAST MONTANA

CITY           SKY/WX    TMP DP  RH WIND       PRES   REMARKS
GLASGOW        CLOUDY    71  28  20 SE16      29.86F
JORDAN           N/A     72  26  18 S13       29.88F
SIDNEY         MOSUNNY   69  33  26 S10       29.94F
WOLF POINT     MOSUNNY   73  30  20 S12       29.89F
MALTA          SUNNY     75  34  22 S10G18    29.79F
PLENTYWOOD       N/A     70  30  23 SE16      29.91F
POPLAR           N/A     72  30  21 SE9       29.89F
SCOBEY           N/A     69  30  23 S2        29.89F
$$

MTZ028>42-056>058-240200-
SOUTHCENTRAL AND SOUTHEAST MONTANA

CITY           SKY/WX    TMP DP  RH WIND       PRES   REMARKS
BAKER          MOSUNNY   63  34  33 SE9       30.01F
BILLINGS       CLOUDY    70  41  34 SE13      29.91F
LIVINGSTON     SUNNY     76  42  29 W8        29.90F
MILES CITY     CLOUDY    68  32  26 SE12      29.95F
BIG TIMBER     SUNNY     73  39  29 NW5       29.93F
FORSYTH          N/A     72  36  26 SE10      29.93F
LAUREL           N/A     70  41  34 CALM      29.91F
ROUNDUP          N/A     71  39  31 SE10      29.82F
$$

REGIONAL REPORTS...DAKOTAS

CITY           SKY/WX    TMP DP  RH WIND       PRES   REMARKS
WILLISTON      CLOUDY    69  33  26 SE9       29.95F
MINOT          SUNNY     65  34  31 E5        29.97F
DICKINSON      SUNNY     61  32  33 E6        29.99F
BEACH            N/A     63  32  31 SE8       30.01F HAZE
TIOGA            N/A     64  30  27 S12       29.98F
WATFORD CITY     N/A     66  32  28 SE9       29.97F
BISMARCK       SUNNY     63  37  38 E12G22    29.99F
GRAND FORKS    PTCLDY    62  42  47 E9        29.95F
FARGO          CLOUDY    57  44  62 NE12      29.94S
BUFFALO SD       N/A     63  36  36 NE6       29.96F
RAPID CITY     SUNNY     60  34  37 N15       30.03S
$$

REGIONAL REPORTS...WYOMING/IDAHO/WASHINGTON

CITY           SKY/WX    TMP DP  RH WIND       PRES   REMARKS
GILLETTE       CLOUDY    58  46  64 CALM      30.05F
SHERIDAN       MOSUNNY   62  37  39 SE7       30.00F
BUFFALO WY     CLOUDY    61  33  35 SE8       30.06F
CODY           CLOUDY    68  37  32 SE12      30.00F
YELLOWSTONE LA   N/A     60  35  39 VRB6      30.19F
IDAHO FALLS    SUNNY     76  40  27 S15       30.03F
SALMON         SUNNY     79  41  25 NW3       29.86F
BOISE          SUNNY     85  37  18 N8        29.93F
SPOKANE        MOSUNNY   82  43  25 SW24G32   29.78F
$$

REGIONAL REPORTS...ALBERTA

CITY           SKY/WX    TMP DP  RH WIND       PRES   REMARKS
EDMONTON       MOSUNNY   81  39  22 S9        29.44F
CALGARY        PTSUNNY   79  34  19 SW14      29.57F
LETHBRIDGE     PTSUNNY   77  41  27 SW17      29.64F
MEDICINE HAT   PTSUNNY   84  43  23 S20       29.59F
WATERTON GATE    N/A     73  37  27 SW17G30     N/A
CARDSTON         N/A     77  43  29 SW10        N/A
MILK RIVER       N/A     79  41  25 SW17G23     N/A
$$

REGIONAL REPORTS...SASKATCHEWAN

CITY           SKY/WX    TMP DP  RH WIND       PRES   REMARKS
SWIFT CURRENT  MOSUNNY   72  28  20 S18G25    29.74F
REGINA         PTSUNNY   72  30  21 S15G21    29.82F
SASKATOON      MOSUNNY   72  32  23 S15       29.70F
CYPRESS HILLS    N/A     70  37  30 S14G21      N/A
ROCKGLEN         N/A     66  28  24 S16G22      N/A
$$



USA.gov is the U.S. government's official web portal to all federal, state and local government web resources and services.